PROGRESS-MS 32

Last updated on Thu Mar 05 2026 00:02:17 GMT+0000 (Coordinated Universal Time)

1 65586U 25204A 26063.54402654 .00009464 00000+0 18311-3 0 9999 2 65586 51.6315 97.7962 0008198 156.3781 203.7585 15.48441338554500
UTC large
Height (km)
Speed (km/s)
/
Latitude / Longitude
Inclination (degrees)
Orbital Period (minutes)
Azimuth
Elevation
Range (km)
Doppler Factor

Next 0 passes for location: London (51.5072 / 0.1276)

Sorry there are no passes over London.